Weather Service Report


790 
ASUS45 KBOI 301910
RWRID 

IDAHO REGIONAL WEATHER ROUNDUP
NATIONAL WEATHER SERVICE BOISE ID
100 PM MDT FRI SEP 30 2016

NOTE: "FAIR" INDICATES FEW OR NO CLOUDS BELOW 12000 FEET
WITH NO SIGNIFICANT WEATHER AND/OR OBSTRUCTIONS TO VISIBILITY

IDZ012-014-302000-
SOUTHWEST IDAHO

  
CITY           SKY/WX    TMP DP  RH WIND       PRES   REMARKS
BOISE          SUNNY     83  37  19 S9        30.02F                  
CALDWELL       SUNNY     83  42  23 E12       30.00F                  
MOUNTAIN HOME  MOSUNNY   79  45  29 E9        30.04F                  
$$

IDZ016-017-302000-
SOUTHCENTRAL IDAHO

  
CITY           SKY/WX    TMP DP  RH WIND       PRES   REMARKS
BURLEY         SUNNY     74  50  42 VRB3      30.12F                  
JEROME         SUNNY     76  42  29 VRB5      30.13F                  
TWIN FALLS     SUNNY     75  50  41 N6        30.12F                  
$$

IDZ019>023-302000-
SOUTHEAST IDAHO

  
CITY           SKY/WX    TMP DP  RH WIND       PRES   REMARKS
IDAHO FALLS    MOSUNNY   71  48  43 SW10      30.19F                  
POCATELLO      SUNNY     76  48  37 VRB6      30.16                   
REXBURG        SUNNY     69  48  47 SW8       30.20F                  
$$

IDZ006-010-011-018-031-032-302000-
CENTRAL IDAHO MOUNTAINS

  
CITY           SKY/WX    TMP DP  RH WIND       PRES   REMARKS
MCCALL         MOSUNNY   72  36  26 S17G23    30.11F                  
HAILEY         MOSUNNY   70  48  46 E7        30.20F                  
STANLEY          N/A     67  35  30 SW9       30.21F                  
SALMON         SUNNY     70  46  43 NW7       30.10F                  
CHALLIS        SUNNY     65  45  48 CALM      30.16F                  
$$

IDZ002-004-006-007-026-302000-
NORTHERN IDAHO

  
CITY           SKY/WX    TMP DP  RH WIND       PRES   REMARKS
LEWISTON       SUNNY     73  47  39 CALM      29.94F                  
LOWELL           N/A     73  52  47 CALM      29.93F                  
COEUR D'ALENE  MOSUNNY   66  54  65 NE7       29.98F                  
MULLAN PASS    SUNNY     62  40  44 VRB7      30.11R                  
$$
  

Return to Home page


Western Regional Climate Center, wrcc@dri.edu